COSMOS 1275 DEB, 42176

Orbit data source: Space-Track

COSMOS 1275 DEB, 42176 is space debris in LEO originally from a launch on Thu, 04 Jun 1981 UTC launched from the Plesetsk Missile And Space Complex (PKMTR). Debris objects in space refer to the collection of defunct objects orbiting the Earth. Examples of debris include non-operational satellites, rocket bodies, and fragments generated from explosions, collisions, or faulty payload assembly.

Loading next visibility...
Identifier
42176, 1981-053SQ
Orbit
LEO
Country
Flag of CISCIS
Related business
Manufacturer
Unknown
Mission
Spacecraft
Bus & Motor
Unknown
Mass
Unknown
Launch date (UTC)
1981-06-04 (45 years ago)
Launch vehicle
Unknown
Launch site
Plesetsk Missile And Space Complex (PKMTR)
Object type
Payload
Rocket body
Debris
Shape & HBR
Unknown shape, 0.1 m
Radar Cross Section
Small (<0.1 m²)

Expand to show TLE details & history
Last TLE update: 2 weeks ago

TLE from 2 weeks ago
0 COSMOS 1275 DEB
1 42176U 81053SQ  26147.24676645  .00001144  00000-0  11673-2 0  9997
2 42176  82.8999  70.8470 0106340  52.7774 100.6108 13.73346336626121
Epoch: 2026-05-27T05:55Z
TLE epoch observation values (Epoch: 2026-05-27T05:55:20.621Z)
Latitude
25.2372°
Longitude
-86.14593°
Altitude
1,005.858 km
Speed
7.343 km/s
True Right ascension
16h 29m 59s
True Declination
25° 06' 33"
Sunlit
Object was in full shadow at epoch
Visualization orbit readout
Latitude
Unknown
Longitude
Unknown
Altitude
Unknown
Speed
Unknown
Apparent Right ascension
Unknown
Apparent Declination
Unknown
Sunlit
N/A
Visualization observer readout
Local Sidereal Time
19:20:17
Azimuth
Unknown
Elevation
Unknown
Doppler factor
Unknown
Orbital elements
Apogee altitude
1,063.031 km
Perigee altitude
906.437 km
Semi-major axis
7,362.871 km
Eccentricity
0.01063
Inclination
82.8999°
RAAN
70.847°
Arg. of periapsis
52.7774°
True anomaly
101.80552°
Mean anomaly
100.6108°
Eccentric anomaly
101.20846°
Mean motion
3.43536 °/min
Orbital period
104.79 mins
BSTAR
0.0011673
Loading maneuver chart data...
Computing Atmospheric mass density...

Documentation

Showing up to 5 results
|